カタログに戻る

STARLINK-36670

運用中通信VLEO
NORAD 67828·PAYLOAD·🇺🇸 United States

打ち上げ Feb 16, 2026 から Vandenberg Space Force Base

Loading…

次のパス (今後24時間)

TLE

最新Source: CelesTrak SupGP

元期: Sep 14, 2026, 22:38 UTC

1 67828C 26033H   26257.94354167  .00033142  00000+0  12006-2 0  2576
2 67828  42.9998 278.5504 0001550 263.2365 127.1102 15.27556205    16

AllMySatでSTARLINK-36670をリアルタイム追跡

Download on the App Store